EHI
3 7 10 9 10 9 7 4 2 1 0 0 0 0 0 0 0 1 3 6 9 10 12 12 11 10 6 2 1 0 0 0 0 0 0 0 0 0 0 0 0 0 0
4 8 11 10 9 7 5 5 3 1 0 0 0 0 0 0 0 1 3 5 8 11 14 14 12 10 6 2 1 0 0 0 0 0 0 0 0 0 0 0 0 0 0
8 10 11 10 7 5 4 4 3 1 0 0 0 0 0 0 0 1 2 3 5 8 12 13 11 9 6 4 2 2 1 0 0 0 0 0 0 0 0 0 0 0 0
11 13 12 8 6 5 3 2 1 1 0 0 0 0 0 0 0 0 0 1 2 5 8 8 8 8 6 6 5 4 2 1 0 0 0 0 0 0 0 0 0 0 0
12 13 13 9 7 6 3 1 1 1 0 0 0 0 0 0 0 0 0 0 1 3 4 4 5 6 6 6 7 5 3 1 0 0 0 0 0 0 0 0 0 0 0
12 14 14 12 9 7 5 2 1 1 0 1 1 0 0 0 0 0 0 0 0 1 2 3 4 5 5 6 6 6 3 1 0 0 0 0 0 0 0 0 0 0 0
14 15 14 13 11 9 7 5 2 2 2 2 2 1 0 0 0 0 0 0 0 0 1 2 3 4 4 5 5 5 4 1 0 0 0 0 0 0 0 0 0 0 0
17 16 14 12 10 10 9 7 5 4 5 4 3 2 0 0 0 0 0 0 0 0 0 1 1 2 2 2 3 4 3 1 0 0 0 0 0 0 0 0 0 0 0
19 17 14 11 9 9 7 6 6 6 7 6 3 1 0 0 0 0 0 0 0 0 0 0 0 1 1 0 1 1 1 0 0 0 0 0 0 0 0 0 0 0 0
15 14 11 8 6 6 4 4 4 6 6 6 4 1 0 0 0 0 0 0 0 0 0 0 0 0 0 0 0 0 0 0 0 0 0 0 0 0 0 0 0 0 0
9 9 6 4 2 2 1 1 2 3 3 3 3 2 1 0 0 0 0 0 0 0 0 0 0 0 0 0 0 0 0 0 0 0 0 0 0 0 0 0 0 0 0
5 5 3 1 0 0 0 0 0 1 1 1 1 1 1 0 0 0 0 0 0 0 0 0 0 0 0 0 0 0 0 0 0 0 0 0 0 0 0 0 0 0 0
3 2 1 0 0 0 0 0 0 0 0 0 0 0 0 0 0 0 0 0 0 0 0 0 0 0 0 0 0 0 0 0 0 0 0 0 0 0 0 0 0 0 0
1 0 0 0 0 0 0 0 0 0 0 0 0 0 0 0 0 0 0 0 0 0 0 0 0 0 0 0 0 0 0 0 0 0 0 0 0 0 0 0 0 0 0
0 0 0 0 0 0 0 0 0 0 0 0 0 0 0 0 0 0 0 0 0 0 0 0 0 0 0 0 0 0 0 0 0 0 0 0 0 0 0 0 0 0 0
0 0 0 0 0 0 0 0 0 0 0 0 0 0 0 0 0 0 0 0 0 0 0 0 0 0 0 0 0 0 0 0 0 0 0 0 0 0 0 0 0 0 0
0 0 0 0 0 0 0 0 0 0 0 0 0 0 0 0 0 0 0 0 0 0 0 0 0 0 0 0 0 0 0 0 0 0 0 0 0 0 0 0 0 0 0
0 0 0 0 0 0 0 0 0 0 0 0 0 0 0 0 0 0 0 0 0 0 0 0 0 0 0 0 0 0 0 0 0 0 0 0 0 0 0 0 0 0 0
0 0 0 0 0 0 0 0 0 0 0 0 0 0 0 0 0 0 0 0 0 0 0 0 0 0 0 0 0 0 0 0 0 0 0 0 0 0 0 0 0 0 0
0 0 0 0 0 0 0 0 0 0 0 0 0 0 0 0 0 0 0 0 0 0 0 0 0 0 0 0 0 0 0 0 0 0 0 0 0 0 0 0 0 0 0
0 0 0 0 0 0 0 0 0 0 0 0 0 0 0 0 0 0 0 0 0 0 0 0 0 0 0 0 0 0 0 0 0 0 0 0 0 0 0 0 0 0 0
0 0 0 0 0 0 0 0 0 0 0 0 0 0 0 0 0 0 0 0 0 0 0 0 0 0 0 0 0 0 0 0 0 0 0 0 0 0 0 0 0 0 0
0 0 0 0 0 0 0 0 0 0 0 0 0 0 0 0 0 0 0 0 0 0 0 0 0 0 0 0 0 0 0 0 0 0 0 0 0 0 0 0 0 0 0
0 0 0 0 0 0 0 0 0 0 0 0 0 0 0 0 0 0 0 0 0 0 0 0 0 0 0 0 0 0 0 0 0 0 0 0 0 0 0 0 0 0 0
0 0 0 0 0 0 0 0 0 0 0 0 0 0 0 0 0 0 0 0 0 0 0 0 0 0 0 0 0 0 0 0 0 0 0 0 0 0 0 0 0 0 0
0 0 0 0 0 0 0 0 0 0 0 0 0 0 0 0 0 0 0 0 0 0 0 0 0 0 0 0 0 0 0 0 0 0 0 0 0 0 0 0 0 0 0
Wind_Speed
4 3 3 3 3 3 3 3 3 3 3 2 3 3 3 3 3 2 2 9 11 11 11 12 12 12 11 11 10 10 10 10 9 9 9 9 9 8 8 8 9 9 9
3 4 4 3 4 4 3 3 3 3 3 3 3 2 3 2 3 3 2 5 9 10 11 11 11 12 12 11 11 11 10 10 10 10 10 9 9 9 8 9 9 9 9
4 4 3 3 3 4 4 3 3 2 2 3 3 2 2 3 3 3 3 2 3 8 10 9 9 10 11 12 12 11 11 11 11 10 10 10 9 9 9 9 9 9 9
3 3 3 3 3 2 2 3 3 3 3 2 2 2 2 2 3 3 2 2 2 3 5 8 9 9 11 12 12 12 12 12 11 11 11 11 11 10 10 10 10 10 10
2 2 2 3 3 3 2 3 3 3 3 3 2 1 1 2 3 3 3 3 3 3 3 6 9 10 11 11 12 13 13 12 12 12 12 12 12 11 11 11 11 11 11
2 2 2 3 3 3 2 2 3 3 3 4 3 2 2 1 2 2 4 3 3 4 4 4 4 5 10 11 12 13 13 14 13 13 13 12 12 12 12 12 12 11 11
2 2 2 2 2 3 3 4 3 4 3 3 3 2 1 2 2 1 2 3 3 3 4 4 3 2 4 9 11 13 14 14 14 14 13 13 12 13 13 12 12 11 11
2 1 1 2 2 2 3 3 4 3 2 3 3 3 2 0 1 1 1 2 3 3 4 4 4 3 3 2 8 13 13 14 14 14 13 13 12 12 12 12 11 11 10
1 1 1 1 1 2 2 3 3 4 3 3 3 4 4 4 2 0 1 2 3 3 3 3 4 4 4 3 4 9 13 13 14 13 13 12 12 12 11 11 10 10 9
2 2 1 1 1 1 1 2 2 2 4 3 2 2 2 4 4 2 0 1 2 3 3 4 4 4 4 4 5 10 11 11 12 13 13 12 12 11 11 10 9 9 8
3 3 2 2 1 0 1 1 2 2 3 4 3 3 2 1 2 4 3 2 2 2 2 3 3 4 4 4 4 9 11 11 11 12 12 12 12 11 10 9 9 8 8
2 3 3 2 1 1 1 1 1 2 2 3 3 3 4 4 4 4 4 4 3 2 2 2 3 3 4 4 6 12 12 11 10 11 11 11 11 10 9 8 8 8 8
2 3 3 2 1 1 1 0 0 1 2 3 4 3 4 3 3 4 5 4 3 2 2 2 2 3 3 3 5 12 11 11 11 10 10 10 9 8 8 8 7 7 7
1 2 2 2 2 2 1 1 0 0 0 1 2 3 3 3 4 4 5 6 5 3 2 2 2 3 3 4 6 8 7 11 11 10 9 8 7 7 8 8 7 6 6
2 2 3 3 3 3 2 1 1 1 0 0 1 1 1 2 3 3 4 6 7 6 4 3 2 2 4 4 5 4 5 9 10 9 8 7 7 6 6 6 6 6 5
3 3 3 3 3 3 3 2 2 2 2 1 1 1 1 1 2 3 3 3 4 6 5 3 3 4 5 5 6 4 5 8 7 7 6 5 5 5 5 5 5 5 4
3 3 3 3 3 3 3 3 3 3 3 3 3 3 3 3 3 3 4 4 4 5 8 5 4 5 4 5 4 3 3 2 2 5 5 5 4 4 4 4 4 4 3
4 4 4 4 4 4 4 4 4 4 4 4 4 4 4 4 5 4 4 6 5 5 9 10 5 4 4 4 4 4 3 3 2 3 4 5 4 4 4 4 5 4 4
5 5 5 5 5 5 4 4 4 5 5 5 5 5 5 6 6 5 6 7 6 7 7 9 6 3 3 3 4 3 2 1 2 3 5 6 6 6 6 6 6 6 6
5 6 5 5 5 5 5 5 6 6 6 6 6 6 6 6 7 7 7 8 8 9 8 8 7 4 3 3 3 3 1 0 1 2 3 3 5 7 7 8 8 8 8
7 6 6 6 6 6 6 6 7 8 8 8 8 7 7 9 8 7 7 7 8 7 7 7 6 4 3 3 2 2 2 0 1 1 1 2 2 2 4 7 9 10 10
7 7 7 7 8 7 10 11 9 8 8 9 8 8 9 10 11 12 11 10 9 9 7 6 5 5 4 3 2 2 2 2 1 1 1 2 1 2 3 4 7 10 10
7 7 7 8 8 9 12 13 13 9 9 8 8 7 7 9 10 10 12 13 10 10 9 7 7 5 4 4 4 3 2 2 2 2 2 1 1 2 3 4 8 10 11
6 6 7 7 7 9 12 13 13 11 10 9 8 8 8 7 8 9 10 10 9 7 7 6 6 5 4 4 4 4 3 2 1 1 2 1 2 2 3 3 6 8 10
6 5 6 7 8 8 10 12 11 8 8 9 8 8 8 8 11 12 11 10 9 6 8 9 7 6 6 5 5 4 3 3 2 2 1 1 1 2 3 3 4 6 8
5 5 7 6 7 7 9 11 9 6 7 6 7 7 10 10 11 11 9 9 8 4 4 5 5 5 4 4 4 4 4 3 2 1 2 1 0 1 3 3 3 3 3
Wind_Direction
187 184 187 188 189 191 196 198 205 202 198 200 203 197 194 199 174 169 174 181 179 180 178 175 172 169 167 165 161 156 150 146 142 136 130 123 117 113 112 111 107 103 99
182 186 190 193 197 192 196 199 206 197 192 190 192 183 171 170 167 167 174 179 176 173 175 173 172 169 166 163 159 154 151 148 143 137 132 128 124 121 116 113 109 105 100
182 186 185 195 204 195 192 193 190 172 188 187 180 177 163 161 165 165 164 169 174 173 167 164 164 167 166 165 161 159 154 149 144 139 134 130 124 119 117 114 110 107 102
187 180 180 193 195 193 180 186 177 168 179 178 179 185 165 156 161 156 149 147 156 162 163 159 158 164 164 166 166 161 155 150 146 141 135 129 124 120 117 112 109 106 103
190 183 189 194 175 181 186 189 172 164 170 170 173 160 139 138 150 156 152 151 154 149 148 158 162 163 165 165 163 158 154 150 144 138 132 127 123 118 115 112 108 105 103
199 173 195 206 181 178 189 184 172 173 167 160 153 132 109 126 121 146 161 151 149 149 145 150 154 160 164 162 157 152 149 145 140 134 130 126 121 118 115 112 108 105 103
180 181 196 202 188 187 191 178 164 166 175 152 129 119 66 62 81 121 147 147 149 147 138 135 130 127 153 159 154 151 149 145 140 135 132 127 124 122 119 116 112 107 103
155 167 189 209 201 187 182 176 165 168 184 174 150 142 159 98 39 67 129 148 151 137 134 130 120 122 126 138 148 148 145 142 140 137 133 131 128 125 121 117 113 108 103
93 125 158 179 185 173 182 190 179 176 186 201 179 158 167 187 163 91 124 137 136 137 135 131 122 117 119 115 132 139 138 139 138 135 133 131 127 124 122 118 114 110 104
32 44 44 66 107 152 184 200 188 189 178 193 203 191 158 149 154 156 71 74 116 124 135 137 126 112 111 114 121 133 131 131 133 133 130 128 127 125 120 117 115 111 108
25 29 33 40 50 56 215 205 202 205 196 196 190 174 152 126 134 144 160 157 91 64 87 111 120 114 108 105 112 123 121 119 122 128 129 129 128 125 121 119 117 114 109
15 17 27 28 27 9 297 242 208 208 213 208 201 184 173 167 170 155 153 150 132 86 70 78 99 106 106 107 124 126 121 118 121 124 126 126 126 125 124 122 122 117 111
6 3 16 14 6 347 331 334 148 210 225 217 211 206 196 187 157 151 142 140 132 116 86 69 74 99 113 104 120 126 121 118 115 113 115 119 122 126 126 123 119 116 113
355 357 11 16 16 14 14 42 81 259 282 248 222 212 202 191 171 164 153 147 138 122 105 110 74 87 100 100 110 115 117 116 113 112 113 116 119 122 121 119 118 116 111
7 17 17 17 19 22 26 46 58 57 63 312 258 220 209 187 169 162 156 155 149 151 150 139 115 104 105 101 115 110 113 122 124 122 119 118 116 116 120 124 127 122 120
14 19 26 27 27 27 28 41 52 45 70 57 60 73 80 98 115 129 138 127 127 135 136 132 123 129 128 132 131 122 125 134 137 135 134 136 133 134 139 149 150 148 149
23 27 30 35 37 37 38 50 56 57 70 65 62 74 75 84 107 114 121 120 117 117 122 113 102 120 123 131 129 119 122 132 143 161 168 171 168 167 172 174 175 179 183
34 36 39 42 44 47 47 55 62 57 68 73 72 76 77 86 92 101 109 112 115 115 128 129 124 124 129 140 132 131 144 165 170 196 204 205 204 201 202 205 210 214 220
43 41 43 46 43 46 52 58 67 67 67 70 74 79 83 91 89 92 99 104 106 109 112 124 125 118 114 127 118 121 132 130 192 206 220 227 229 228 225 225 229 233 238
51 46 44 45 46 49 52 61 69 68 66 64 66 72 76 88 97 101 102 106 110 111 113 119 120 115 108 106 110 117 116 168 224 220 224 223 231 237 237 236 238 240 243
53 48 47 44 43 49 52 63 71 73 69 66 62 64 73 85 92 102 112 116 118 116 115 115 116 110 109 117 132 144 138 143 289 249 227 252 231 241 245 242 242 241 244
52 52 49 50 51 54 60 65 72 71 69 69 67 65 73 78 85 91 102 108 118 123 122 117 119 124 129 134 130 134 128 112 281 263 167 267 200 246 252 239 242 242 244
58 55 51 54 55 53 61 66 66 69 65 59 60 64 74 76 79 87 87 85 86 100 114 123 126 135 142 157 140 127 142 162 215 240 130 279 280 263 263 256 248 245 245
59 57 55 55 57 53 62 69 70 68 64 57 57 65 74 70 80 90 88 80 75 77 95 104 123 135 144 152 152 157 168 147 5 351 122 179 288 271 278 274 268 255 252
61 57 58 59 60 50 60 70 74 72 66 54 51 56 69 75 82 91 91 87 78 64 74 93 106 111 118 128 136 106 88 84 46 324 351 130 293 309 308 296 289 279 266
71 69 61 54 58 55 60 73 78 79 72 60 48 46 59 74 78 84 90 95 90 79 83 77 69 61 65 73 93 118 134 120 116 307 293 113 330 17 333 302 295 299 289